Погода в Нижнеивкино

Россия / Кировская область     58°11′36″N   49°31′24″E
темп.,
°C
ветер,
м/с
пор.,
м/с
влажн.,
%
обл.,
%
осадки,
мм/ч
давл.,
гПа
погр.,
м
23 апреля, пт
пт2300:00+4ю2597100 0.1 1022127
03:00+3ююз239737 0.1 102353
06:00+4ю259311 0.0 1024124
09:00+10ююз34655 0.0 1024671
12:00+12ю345587 0.0 10241653
15:00+11ю1367100 0.1 1024239
18:00+10юв246899 0.0 102396
21:00+8юв27835 0.1 1023179
24 апреля, сб
сб2400:00+6юв399089 0.0 1022226
03:00+6юв41088100 0.1 1021330
06:00+5вюв3108798 0.0 1020361
09:00+8вюв4772100 0.0 1018738
12:00+8вюв4779100 0.1 10161179
15:00+6вюв4690100 0.4 1014962
18:00+6вюв4793100 0.6 1013903
21:00+5вюв4894100 0.8 1011884
25 апреля, вс
вс2500:00+5вюв4893100 0.1 1008736
03:00+5вюв41094100 0.2 1005601
06:00+5вюв51196100 0.3 1003732
09:00+6юв61194100 2.0 10011162
12:00+3ююз3897100 2.1 1003596
15:00+7юз5972100 2.7 10031227
18:00+5зюз61278100 0.3 10051275
21:00+3юз41185100 0.3 1007470
26 апреля, пн
пн2600:00+2юз512855 0.0 1008678
03:00+1юз513865 0.0 1009565
06:00+2ююз513845 0.0 1010568
09:00+6юз696731 0.0 10101320
12:00+6юз697081 0.4 10101203
15:00+7юз595812 0.6 10111626
18:00+7юз595736 0.1 1010922
21:00+2ююз39815 0.1 1011194
27 апреля, вт
вт2700:00+1ююз38840 0.0 1010161
03:000ююз25884 0.0 101093
06:00+3ююз25765 0.0 1009164
09:00+8юз345014 0.0 10071324
12:00+10юз3439100 0.0 10061965
15:00+9ю2361100 0.0 10041065
18:00+6вюв3784100 0.8 1002690
21:00+5в4990100 0.9 999452